Regional Weather Roundup
Issued by NWS Bismarck, ND

Home | Current Version | Previous Version | Text Only | Print | Product List | Glossary On
Versions: 1 2 3 4 5 6 7 8 9 10 11 12 13 14 15 16 17 18 19 20 21 22 23 24 25 26 27 28 29 30 31 32 33 34 35 36 37 38 39 40 41 42 43 44 45 46 47 48 49 50
000
ASUS43 KBIS 010610
RWRBIS

NWR BROADCAST TEXT
NATIONAL WEATHER SERVICE BISMARCK ND
100 AM CDT SUN MAY 01 2016

NOTE: "FAIR" INDICATES FEW OR NO CLOUDS BELOW 12,000 FEET WITH NO
SIGNIFICANT WEATHER AND/OR OBSTRUCTIONS TO VISIBILITY.


CITY           SKY/WX    TMP DP  RH WIND       PRES   REMARKS
WILLISTON      CLEAR     40  30  67 N12       30.32R
MINOT          CLEAR     41  27  57 NW8       30.31R
MINOT AFB      CLEAR     42  29  59 N6        30.30S
BISMARCK       CLEAR     40  32  73 N6        30.28R
DICKINSON      CLEAR     34  26  72 W5        30.27S
GARRISON         N/A     37  29  72 N6        30.29S
HETTINGER ARPT CLEAR     31  25  78 CALM      30.29R
JAMESTOWN      CLEAR     37  28  70 N8        30.24R
BEACH          FAIR      32  30  93 CALM      30.34R
CARRINGTON     FAIR      41  28  60 N5        30.29S
HAZEN          MOCLDY    30  27  86 S3        30.31S
LINTON         FAIR      36  28  75 E6        30.27R
MANDAN         FAIR      41  30  65 NE6       30.28R
OAKES            N/A    N/A N/A N/A MISG        N/A
RUGBY          FAIR      37  28  70 NE10      30.30F
STANLEY        FAIR      43  28  56 NE6       30.34S
WATFORD CITY   FAIR      32  30  93 CALM      30.32R
$$

CITY           SKY/WX    TMP DP  RH WIND       PRES   REMARKS
GRAND FORKS    CLEAR     47  28  47 NE9       30.26R
GRAND FORKS AF CLEAR     42  26  53 NE5       30.26S
DEVILS LAKE    CLEAR     37  31  78 N9        30.29S
FARGO          CLEAR     46  27  47 NE8       30.22R
CANDO          FAIR      36  27  69 N8        30.33S
CAVALIER         N/A     37  30  75 N3        30.30R
GRAFTON        FAIR      39  28  65 N7        30.30R
GWINNER        FAIR      43  32  65 N6        30.21R
LANGDON        FAIR      39  27  60 E5        30.30F
ROLLA          FAIR      36  25  64 NW9       30.33S
WALHALLA       FAIR      36  36 100 CALM      30.31S
$$

CITY           SKY/WX    TMP DP  RH WIND       PRES   REMARKS
ABERDEEN       CLEAR     41  31  67 N7        30.19S
MOBRIDGE       CLEAR     47  30  51 NE14      30.20R
BUFFALO          N/A     41  27  57 N8        30.22R
RAPID CITY     CLOUDY    41  32  70 N10       30.24R
GLASGOW        CLEAR     43  30  60 E6        30.32R
SIDNEY         CLEAR     39  30  70 NW6       30.32R
WOLF POINT     CLEAR     41  32  70 CALM      30.33R
GLENDIVE       CLEAR     45  30  57 CALM      30.34R
MILES CITY     CLOUDY    45  35  68 N8        30.30S
BAKER          CLEAR     37  28  70 CALM      30.31R
$$

CITY           SKY/WX    TMP DP  RH WIND       PRES   REMARKS
BILLINGS       MOCLDY    42  34  73 NW7       30.31S
GREAT FALLS    PTCLDY    41  33  73 SE7       30.33S
REGINA         CLEAR     41  23  48 SE10      30.33S
$$





USA.gov is the U.S. government's official web portal to all federal, state and local government web resources and services.